Tracking 21094 objects as of 14-Aug-2020
HD Live streaming from Space Station
objects crossing your sky now
Track the most recent launched group of Starlink satellites

SUCHAI

Track SUCHAI now!
10-day predictions
SUCHAI is classified as:


NORAD ID: 42788
Int'l Code: 2017-036Z
Perigee: 493.4 km
Apogee: 509.1 km
Inclination: 97.3 °
Period: 94.5 minutes
Semi major axis: 6872 km
RCS: Unknown
Launch date: June 23, 2017
Source: Chile (CHLE)
Launch site: SRIHARIKOTA (SRI)

Uplink (MHz):
Downlink (MHz): 437.225
Beacon (MHz): 437.229
Mode: CW
Call sign: SUCHAI
Status: Active

aabbcc
Your satellite tracking list
Your tracking list is empty




NASA's NSSDC Master Catalog

Two Line Element Set (TLE):
1 42788U 17036Z   20226.13961341 +.00001090 +00000-0 +47984-4 0  9992
2 42788 097.2977 279.1564 0011399 176.9550 183.1759 15.23887954174516
Source of the keplerian elements: AMSAT